EW5705 Weather Reports


Display with metric or nautical units.
time (UTC)temp
F
wind
direction
speed
MPH
gust
MPH
rain 1hr
in
rain 24hr
in
rain mn
in
humidity
%
barometer
mb
20260508181541 46 105 4.0 8.0 0.00 1.12 0.00 85 1001.6
20260508180035 46 104 5.0 11.0 0.00 1.12 0.00 84 1001.5
20260508174554 47 89 6.0 11.0 0.00 1.12 0.00 82 1001.3
20260508173033 47 87 6.0 9.0 0.00 1.12 0.00 84 1001.4
20260508171533 47 108 6.0 9.0 0.00 1.12 0.00 84 1001.8
20260508170130 47 102 5.0 8.0 0.00 1.12 0.00 85 1001.6
20260508164527 47 94 4.0 7.0 0.00 1.12 0.00 84 1001.6
20260508163040 46 87 6.0 9.0 0.00 1.12 0.00 83 1001.5
20260508161525 45 88 5.0 8.0 0.00 1.12 0.00 84 1001.7
20260508160026 45 85 6.0 9.0 0.00 1.12 0.00 86 1001.6
20260508154522 45 94 5.0 9.0 0.00 1.12 0.00 86 1001.7
20260508153027 46 93 4.0 7.0 0.00 1.12 0.00 87 1001.7
20260508151527 45 91 5.0 8.0 0.00 1.12 0.00 88 1001.7
20260508150022 45 91 5.0 7.0 0.00 1.12 0.00 88 1001.9
20260508144518 45 100 6.0 9.0 0.00 1.12 0.00 89 1001.7
20260508143017 45 100 3.0 7.0 0.00 1.12 0.00 90 1002.1
20260508141517 44 89 6.0 9.0 0.00 1.12 0.00 89 1002.2
20260508140015 45 86 5.0 8.0 0.00 1.12 0.00 90 1002.4
20260508134522 45 87 4.0 7.0 0.00 1.12 0.00 92 1002.8
20260508133014 45 98 5.0 8.0 0.00 1.12 0.00 94 1002.6
20260508131513 45 152 3.0 5.0 0.00 1.12 0.00 95 1002.4
20260508130012 45 152 2.0 5.0 0.00 1.12 0.00 96 1002.2
20260508124512 44 153 3.0 6.0 0.00 1.12 0.00 96 1002.4
20260508123012 44 154 2.0 5.0 0.00 1.12 0.00 96 1002.1
20260508121513 44 154 1.0 5.0 0.00 1.12 0.00 96 1002.2
20260508120010 43 155 0.0 6.0 0.00 1.12 0.00 96 1002.4
20260508114510 44 156 2.0 6.0 0.00 1.28 0.00 96 1002.6
20260508113010 43 154 0.0 6.0 0.00 1.28 0.00 97 1002.2
20260508111509 42 154 2.0 6.0 0.00 1.28 0.00 97 1002.5
20260508110010 41 154 0.0 5.0 0.00 1.28 0.00 97 1002.7
20260508104507 40 154 0.0 3.0 0.00 1.28 0.00 96 1003.1
20260508103006 40 154 1.0 3.0 0.00 1.28 0.00 96 1002.9
20260508101518 39 154 0.0 0.0 0.00 1.28 0.00 96 1002.9
20260508100005 39 154 0.0 2.0 0.00 1.28 0.00 96 1002.6
20260508094501 39 154 0.0 1.0 0.00 1.28 0.00 96 1002.4
20260508093106 39 154 1.0 2.0 0.00 1.28 0.00 96 1002.1
20260508091600 39 154 0.0 0.0 0.00 1.28 0.00 96 1002.1
20260508090111 38 154 0.0 2.0 0.00 1.28 0.00 96 1002.2
20260508084556 39 154 3.0 5.0 0.00 1.28 0.00 96 1002.2
20260508083054 38 75 2.0 3.0 0.00 1.28 0.00 96 1002.0
20260508081601 38 75 0.0 0.0 0.00 1.28 0.00 96 1001.9
20260508080053 38 75 0.0 0.0 0.00 1.28 0.00 96 1001.6
20260508074554 39 75 0.0 0.0 0.00 1.29 0.00 96 1001.8
20260508073050 39 75 0.0 0.0 0.00 1.29 0.00 95 1001.8
20260508071548 39 75 0.0 2.0 0.00 1.29 0.00 95 1001.8
20260508070046 39 75 0.0 5.0 0.00 1.29 0.00 95 1001.8
20260508064543 40 75 3.0 6.0 0.00 1.29 0.00 95 1001.6
20260508063039 42 75 2.0 5.0 0.00 1.29 0.00 95 1001.8
20260508061537 43 75 1.0 5.0 0.00 1.29 0.00 95 1001.9
20260508060033 44 72 2.0 4.0 0.00 1.29 0.00 95 1001.8
20260508054530 44 72 0.0 3.0 0.00 1.29 0.00 95 1001.7
20260508053028 45 72 0.0 5.0 0.00 1.29 0.00 95 1001.7
20260508051523 46 71 0.0 2.0 0.00 1.29 0.00 95 1001.4
20260508050022 46 71 0.0 0.0 0.00 1.29 0.00 95 1001.6
20260508044521 46 71 0.0 3.0 0.00 1.29 0.00 95 1001.5
20260508043020 46 71 0.0 5.0 0.00 1.29 0.00 95 1001.5
20260508041519 46 74 0.0 5.0 0.00 1.29 0.00 95 1001.7
20260508040019 46 74 4.0 6.0 0.00 1.29 0.00 94 1001.7
20260508034517 48 75 1.0 8.0 0.00 1.29 0.00 95 1001.7
20260508033017 49 74 0.0 2.0 0.00 1.29 0.00 96 1001.7
20260508031509 48 74 0.0 2.0 0.00 1.29 0.00 95 1001.8
20260508030006 48 74 0.0 5.0 0.00 1.29 0.00 96 1001.9
20260508024507 49 237 1.0 8.0 0.00 1.29 1.29 96 1001.7
20260508023013 47 147 0.0 3.0 0.00 1.29 1.29 96 1001.8
20260508021503 47 147 0.0 7.0 0.00 1.29 1.29 95 1001.6
20260508020003 49 201 0.0 6.0 0.00 1.29 1.29 96 1001.5
20260508014505 48 200 0.0 6.0 0.00 1.29 1.29 96 1001.6
20260508013001 47 199 4.0 8.0 0.00 1.29 1.29 96 1001.4
20260508011603 48 197 3.0 12.0 0.00 1.29 1.29 95 1001.1
20260508010057 50 200 6.0 10.0 0.00 1.29 1.29 96 1001.2
20260508004559 50 239 3.0 14.0 0.00 1.29 1.29 96 1001.1
20260508003104 49 199 7.0 11.0 0.00 1.29 1.29 96 1001.6
20260508001554 49 200 3.0 7.0 0.00 1.29 1.29 96 1001.7
20260508000053 49 202 4.0 12.0 0.00 1.29 1.29 96 1001.8
20260507234553 49 191 2.0 8.0 0.00 1.29 1.29 95 1001.7
20260507233054 50 203 2.0 8.0 0.00 1.29 1.29 95 1001.4
20260507231557 50 195 6.0 12.0 0.00 1.29 1.29 95 1001.8
20260507230050 50 202 7.0 12.0 0.00 1.29 1.29 95 1001.8
20260507224600 50 214 8.0 12.0 0.00 1.29 1.29 95 1001.8
20260507223051 50 216 9.0 14.0 0.00 1.29 1.29 94 1001.9
20260507221549 51 200 5.0 10.0 0.00 1.29 1.29 94 1002.0
20260507220048 52 205 7.0 11.0 0.00 1.29 1.29 94 1002.1
20260507214548 52 355 7.0 15.0 0.02 1.29 1.29 94 1002.3
20260507213050 52 355 6.0 12.0 0.04 1.29 1.29 95 1002.2
20260507211550 51 216 7.0 12.0 0.11 1.29 1.29 95 1002.1
20260507210111 51 189 5.0 8.0 0.20 1.29 1.29 95 1001.7
20260507204546 51 189 6.0 10.0 0.28 1.27 1.27 95 1002.6
20260507203043 51 202 6.0 10.0 0.43 1.24 1.24 95 1002.7
20260507201539 51 355 9.0 15.0 0.49 1.18 1.18 95 1003.3
20260507200051 50 202 5.0 15.0 0.50 1.09 1.09 95 1003.4
20260507194536 50 355 8.0 16.0 0.55 0.97 0.97 94 1004.1
20260507193101 50 355 13.0 24.0 0.50 0.81 0.81 94 1004.4
20260507191533 51 201 11.0 19.0 0.49 0.69 0.69 93 1004.7
20260507190038 53 355 7.0 13.0 0.42 0.57 0.57 93 1004.5
20260507184531 54 203 9.0 14.0 0.24 0.41 0.41 92 1004.6
20260507183037 55 218 10.0 20.0 0.14 0.31 0.31 93 1005.0